| time (UTC) | temp C | wind direction | speed KPH | gust KPH | rain 1hr cm | rain 24hr cm | rain mn cm | humidity % | barometer mb |
| 20260506014017 | 18 | 68 | 24.1 | 33.8 | 0.00 | 0.00 | 0.00 | 48 | 1022.9 |
| 20260506013518 | 18 | 90 | 19.3 | 30.6 | 0.00 | 0.00 | 0.00 | 49 | 1022.9 |
| 20260506013007 | 18 | 90 | 17.7 | 27.4 | 0.00 | 0.00 | 0.00 | 49 | 1022.9 |
| 20260506012517 | 18 | 90 | 20.9 | 27.4 | 0.00 | 0.00 | 0.00 | 50 | 1023.2 |
| 20260506012038 | 18 | 90 | 17.7 | 27.4 | 0.00 | 0.00 | 0.00 | 50 | 1023.2 |
| 20260506011518 | 17 | 90 | 19.3 | 32.2 | 0.00 | 0.00 | 0.00 | 51 | 1023.1 |
| 20260506011017 | 17 | 90 | 17.7 | 27.4 | 0.00 | 0.00 | 0.00 | 52 | 1023.1 |
| 20260506010517 | 17 | 90 | 16.1 | 27.4 | 0.00 | 0.00 | 0.00 | 54 | 1023.1 |
| 20260506010008 | 16 | 90 | 12.9 | 20.9 | 0.00 | 0.00 | 0.00 | 55 | 1023.0 |
| 20260506005600 | 16 | 90 | 12.9 | 20.9 | 0.00 | 0.00 | 0.00 | 57 | 1023.0 |
| 20260506005018 | 16 | 90 | 12.9 | 19.3 | 0.00 | 0.00 | 0.00 | 58 | 1022.9 |
| 20260506004518 | 16 | 90 | 12.9 | 17.7 | 0.00 | 0.00 | 0.00 | 58 | 1022.8 |
| 20260506004018 | 15 | 90 | 14.5 | 22.5 | 0.00 | 0.00 | 0.00 | 59 | 1022.9 |
| 20260506003517 | 15 | 90 | 14.5 | 24.1 | 0.00 | 0.00 | 0.00 | 59 | 1022.8 |
| 20260506003007 | 15 | 90 | 12.9 | 19.3 | 0.00 | 0.00 | 0.00 | 59 | 1022.6 |
| 20260506002539 | 15 | 90 | 16.1 | 24.1 | 0.00 | 0.00 | 0.00 | 60 | 1022.7 |
| 20260506002038 | 15 | 90 | 14.5 | 20.9 | 0.00 | 0.00 | 0.00 | 60 | 1022.7 |
| 20260506001538 | 14 | 90 | 16.1 | 24.1 | 0.00 | 0.00 | 0.00 | 61 | 1022.6 |
| 20260506001017 | 14 | 90 | 17.7 | 25.7 | 0.00 | 0.00 | 0.00 | 61 | 1022.6 |
| 20260506000518 | 14 | 68 | 17.7 | 25.7 | 0.00 | 0.00 | 0.00 | 61 | 1022.7 |
| 20260506000006 | -17 | 0.0 | 0.0 | 0.00 | 0.00 | 0.00 | |||
| 20260505233518 | 13 | 68 | 19.3 | 27.4 | 0.00 | 0.00 | 0.00 | 63 | 1022.0 |
| 20260505233013 | 12 | 68 | 17.7 | 24.1 | 0.00 | 0.00 | 0.00 | 64 | 1021.9 |
| 20260505232518 | 12 | 68 | 17.7 | 24.1 | 0.00 | 0.00 | 0.00 | 65 | 1021.9 |
| 20260505232038 | 12 | 68 | 14.5 | 19.3 | 0.00 | 0.00 | 0.00 | 65 | 1022.0 |
| 20260505231518 | 12 | 68 | 16.1 | 22.5 | 0.00 | 0.00 | 0.00 | 65 | 1021.9 |
| 20260505231018 | 12 | 68 | 14.5 | 19.3 | 0.00 | 0.00 | 0.00 | 66 | 1021.7 |
| 20260505230539 | 12 | 68 | 14.5 | 19.3 | 0.00 | 0.00 | 0.00 | 66 | 1021.7 |
| 20260505230007 | 11 | 68 | 12.9 | 17.7 | 0.00 | 0.00 | 0.00 | 67 | 1021.6 |
| 20260505225518 | 11 | 68 | 12.9 | 17.7 | 0.00 | 0.00 | 0.00 | 67 | 1021.5 |
| 20260505225018 | 11 | 68 | 14.5 | 19.3 | 0.00 | 0.00 | 0.00 | 67 | 1021.5 |
| 20260505224518 | 11 | 68 | 14.5 | 17.7 | 0.00 | 0.00 | 0.00 | 67 | 1021.4 |
| 20260505224018 | 11 | 68 | 11.3 | 16.1 | 0.00 | 0.00 | 0.00 | 66 | 1021.6 |
| 20260505223559 | 11 | 68 | 11.3 | 14.5 | 0.00 | 0.00 | 0.00 | 65 | 1021.5 |
| 20260505223028 | 11 | 68 | 12.9 | 17.7 | 0.00 | 0.00 | 0.00 | 65 | 1021.5 |
| 20260505222518 | 12 | 90 | 12.9 | 17.7 | 0.00 | 0.00 | 0.00 | 65 | 1021.5 |
| 20260505222018 | 12 | 90 | 12.9 | 17.7 | 0.00 | 0.00 | 0.00 | 64 | 1021.4 |
| 20260505221518 | 12 | 90 | 12.9 | 19.3 | 0.00 | 0.00 | 0.00 | 64 | 1021.3 |
| 20260505221018 | 11 | 68 | 14.5 | 19.3 | 0.00 | 0.00 | 0.00 | 65 | 1021.2 |
| 20260505220518 | 11 | 90 | 12.9 | 17.7 | 0.00 | 0.00 | 0.00 | 65 | 1021.2 |
| 20260505220006 | 11 | 90 | 12.9 | 17.7 | 0.00 | 0.00 | 0.00 | 65 | 1021.2 |
| 20260505215519 | 11 | 90 | 11.3 | 17.7 | 0.00 | 0.00 | 0.00 | 65 | 1021.1 |
| 20260505215018 | 11 | 90 | 11.3 | 16.1 | 0.00 | 0.00 | 0.00 | 64 | 1021.1 |
| 20260505214517 | 11 | 90 | 11.3 | 14.5 | 0.00 | 0.00 | 0.00 | 64 | 1021.1 |
| 20260505214038 | 11 | 90 | 9.7 | 14.5 | 0.00 | 0.00 | 0.00 | 64 | 1020.8 |
| 20260505213518 | 11 | 90 | 8.0 | 11.3 | 0.00 | 0.00 | 0.00 | 64 | 1020.7 |
| 20260505213009 | 11 | 90 | 9.7 | 17.7 | 0.00 | 0.00 | 0.00 | 64 | 1020.7 |
| 20260505212517 | 11 | 90 | 11.3 | 16.1 | 0.00 | 0.00 | 0.00 | 64 | 1020.8 |
| 20260505212018 | 11 | 113 | 8.0 | 11.3 | 0.00 | 0.00 | 0.00 | 64 | 1020.8 |
| 20260505211517 | 11 | 113 | 8.0 | 12.9 | 0.00 | 0.00 | 0.00 | 64 | 1020.7 |
| 20260505211018 | 11 | 113 | 8.0 | 12.9 | 0.00 | 0.00 | 0.00 | 64 | 1020.7 |
| 20260505210518 | 11 | 90 | 9.7 | 12.9 | 0.00 | 0.00 | 0.00 | 64 | 1020.7 |
| 20260505210006 | 11 | 90 | 6.4 | 11.3 | 0.00 | 0.00 | 0.00 | 64 | 1020.7 |
| 20260505205538 | 11 | 90 | 6.4 | 11.3 | 0.00 | 0.00 | 0.00 | 64 | |
| 20260505205038 | 11 | 90 | 6.4 | 9.7 | 0.00 | 0.00 | 0.00 | 64 | |
| 20260505204538 | 11 | 90 | 4.8 | 9.7 | 0.00 | 0.00 | 0.00 | 64 | |
| 20260505204017 | 11 | 90 | 4.8 | 9.7 | 0.00 | 0.00 | 0.00 | 62 | |
| 20260505203518 | 12 | 90 | 6.4 | 11.3 | 0.00 | 0.00 | 0.00 | 61 | |
| 20260505203008 | 12 | 113 | 4.8 | 11.3 | 0.00 | 0.00 | 0.00 | 61 | |
| 20260505202518 | 12 | 90 | 6.4 | 12.9 | 0.00 | 0.00 | 0.00 | 61 | |
| 20260505202018 | 12 | 113 | 4.8 | 9.7 | 0.00 | 0.00 | 0.00 | 60 | |
| 20260505201517 | 12 | 90 | 8.0 | 11.3 | 0.00 | 0.00 | 0.00 | 60 | |
| 20260505201038 | 12 | 90 | 8.0 | 11.3 | 0.00 | 0.00 | 0.00 | 60 | |
| 20260505200518 | 12 | 90 | 8.0 | 12.9 | 0.00 | 0.00 | 0.00 | 60 | |
| 20260505200006 | 12 | 90 | 6.4 | 12.9 | 0.00 | 0.00 | 0.00 | 59 | |
| 20260505195518 | 12 | 90 | 6.4 | 12.9 | 0.00 | 0.00 | 0.00 | 58 | |
| 20260505195018 | 13 | 90 | 9.7 | 14.5 | 0.00 | 0.00 | 0.00 | 58 | |
| 20260505194517 | 13 | 90 | 9.7 | 14.5 | 0.00 | 0.00 | 0.00 | 58 | |
| 20260505194018 | 13 | 90 | 9.7 | 14.5 | 0.00 | 0.00 | 0.00 | 57 | |
| 20260505193517 | 13 | 90 | 11.3 | 17.7 | 0.00 | 0.00 | 0.00 | 56 | |
| 20260505193009 | 13 | 90 | 11.3 | 14.5 | 0.00 | 0.00 | 0.00 | 56 | |
| 20260505192517 | 13 | 90 | 11.3 | 16.1 | 0.00 | 0.00 | 0.00 | 56 | |
| 20260505192038 | 13 | 90 | 12.9 | 17.7 | 0.00 | 0.00 | 0.00 | 56 | |
| 20260505191517 | 13 | 90 | 11.3 | 16.1 | 0.00 | 0.00 | 0.00 | 57 | |
| 20260505191017 | 13 | 90 | 11.3 | 14.5 | 0.00 | 0.00 | 0.00 | 57 | |
| 20260505190517 | 13 | 90 | 8.0 | 12.9 | 0.00 | 0.00 | 0.00 | 57 | |
| 20260505190006 | 13 | 90 | 9.7 | 14.5 | 0.00 | 0.00 | 0.00 | 56 | |
| 20260505185517 | 13 | 90 | 11.3 | 16.1 | 0.00 | 0.00 | 0.00 | 56 | |
| 20260505185038 | 13 | 90 | 8.0 | 12.9 | 0.00 | 0.00 | 0.00 | 56 | |
| 20260505184519 | 13 | 90 | 9.7 | 14.5 | 0.00 | 0.00 | 0.00 | 56 | |
| 20260505184017 | 13 | 90 | 8.0 | 16.1 | 0.00 | 0.00 | 0.00 | 56 | |
| 20260505183517 | 13 | 90 | 11.3 | 14.5 | 0.00 | 0.00 | 0.00 | 57 | |
| 20260505183005 | 13 | 90 | 11.3 | 16.1 | 0.00 | 0.00 | 0.00 | 57 | |
| 20260505182517 | 13 | 90 | 11.3 | 14.5 | 0.00 | 0.00 | 0.00 | 57 | |
| 20260505182058 | 13 | 90 | 11.3 | 16.1 | 0.00 | 0.00 | 0.00 | 57 | |
| 20260505181517 | 13 | 68 | 12.9 | 19.3 | 0.00 | 0.00 | 0.00 | 57 | |
| 20260505181017 | 13 | 68 | 14.5 | 19.3 | 0.00 | 0.00 | 0.00 | 57 | |
| 20260505180517 | 13 | 90 | 12.9 | 17.7 | 0.00 | 0.00 | 0.00 | 57 | |
| 20260505180008 | 13 | 90 | 12.9 | 17.7 | 0.00 | 0.00 | 0.00 | 57 | |
| 20260505175517 | 13 | 90 | 11.3 | 16.1 | 0.00 | 0.00 | 0.00 | 58 | |
| 20260505175017 | 13 | 90 | 11.3 | 16.1 | 0.00 | 0.00 | 0.00 | 57 | |
| 20260505174517 | 13 | 90 | 9.7 | 16.1 | 0.00 | 0.00 | 0.00 | 56 | |
| 20260505174038 | 13 | 113 | 6.4 | 12.9 | 0.00 | 0.00 | 0.00 | 58 | |
| 20260505173517 | 13 | 135 | 6.4 | 12.9 | 0.00 | 0.00 | 0.00 | 58 | |
| 20260505173011 | 13 | 135 | 6.4 | 11.3 | 0.00 | 0.00 | 0.00 | 57 | |
| 20260505172517 | 13 | 135 | 6.4 | 11.3 | 0.00 | 0.00 | 0.00 | 56 | |
| 20260505172017 | 13 | 135 | 6.4 | 11.3 | 0.00 | 0.00 | 0.00 | 56 | |
| 20260505171517 | 13 | 135 | 6.4 | 12.9 | 0.00 | 0.00 | 0.00 | 56 | |
| 20260505171017 | 13 | 135 | 8.0 | 14.5 | 0.00 | 0.00 | 0.00 | 55 | |
| 20260505170517 | 13 | 135 | 8.0 | 14.5 | 0.00 | 0.00 | 0.00 | 55 | |
| 20260505170007 | 13 | 135 | 8.0 | 12.9 | 0.00 | 0.00 | 0.00 | 55 | |
| 20260505165519 | 13 | 135 | 8.0 | 12.9 | 0.00 | 0.00 | 0.00 | 54 | 1020.6 |
| 20260505165038 | 13 | 135 | 4.8 | 11.3 | 0.00 | 0.00 | 0.00 | 54 | 1020.6 |
| 20260505164519 | 13 | 135 | 4.8 | 11.3 | 0.00 | 0.00 | 0.00 | 53 | 1020.6 |
| 20260505164019 | 13 | 135 | 8.0 | 12.9 | 0.00 | 0.00 | 0.00 | 53 | 1020.6 |
| 20260505163539 | 13 | 135 | 6.4 | 11.3 | 0.00 | 0.00 | 0.00 | 52 | 1020.5 |
| 20260505163029 | 14 | 135 | 4.8 | 8.0 | 0.00 | 0.00 | 0.00 | 52 | 1020.4 |
| 20260505162519 | 14 | 135 | 6.4 | 9.7 | 0.00 | 0.00 | 0.00 | 52 | 1020.4 |
| 20260505162040 | 14 | 135 | 6.4 | 9.7 | 0.00 | 0.00 | 0.00 | 51 | 1020.2 |
| 20260505161519 | 14 | 135 | 6.4 | 11.3 | 0.00 | 0.00 | 0.00 | 51 | 1020.2 |
| 20260505161019 | 14 | 158 | 6.4 | 9.7 | 0.00 | 0.00 | 0.00 | 51 | 1020.1 |
| 20260505160519 | 14 | 158 | 4.8 | 11.3 | 0.00 | 0.00 | 0.00 | 51 | 1020.1 |
| 20260505153008 | 16 | 158 | 3.2 | 8.0 | 0.00 | 0.00 | 0.00 | 47 | 1020.1 |
| 20260505152518 | 16 | 135 | 6.4 | 11.3 | 0.00 | 0.00 | 0.00 | 45 | 1020.1 |
| 20260505152018 | 17 | 113 | 4.8 | 9.7 | 0.00 | 0.00 | 0.00 | 44 | 1020.1 |
| 20260505151518 | 17 | 113 | 9.7 | 14.5 | 0.00 | 0.00 | 0.00 | 43 | 1020.1 |
| 20260505151018 | 16 | 113 | 9.7 | 14.5 | 0.00 | 0.00 | 0.00 | 44 | 1020.1 |
| 20260505150519 | 15 | 113 | 3.2 | 11.3 | 0.00 | 0.00 | 0.00 | 48 | 1020.1 |
| 20260505140518 | 16 | 158 | 4.8 | 9.7 | 0.00 | 0.00 | 0.00 | 47 | 1020.2 |
| 20260505125018 | 17 | 135 | 4.8 | 11.3 | 0.00 | 0.00 | 0.00 | 44 | 1019.9 |
| 20260505124518 | 17 | 135 | 3.2 | 6.4 | 0.00 | 0.00 | 0.00 | 44 | 1019.8 |
| 20260505124018 | 17 | 135 | 3.2 | 6.4 | 0.00 | 0.00 | 0.00 | 44 | 1019.8 |
| 20260505123518 | 17 | 135 | 3.2 | 6.4 | 0.00 | 0.00 | 0.00 | 44 | 1019.8 |
| 20260505123027 | 17 | 158 | 3.2 | 6.4 | 0.00 | 0.00 | 0.00 | 44 | 1019.9 |
| 20260505122518 | 17 | 158 | 1.6 | 4.8 | 0.00 | 0.00 | 0.00 | 44 | 1019.7 |
| 20260505122017 | 17 | 158 | 1.6 | 4.8 | 0.00 | 0.00 | 0.00 | 44 | 1019.7 |
| 20260505121518 | 17 | 135 | 3.2 | 4.8 | 0.00 | 0.00 | 0.00 | 43 | 1019.7 |
| 20260505121018 | 17 | 135 | 4.8 | 6.4 | 0.00 | 0.00 | 0.00 | 43 | 1019.6 |
| 20260505120518 | 18 | 135 | 4.8 | 8.0 | 0.00 | 0.00 | 0.00 | 43 | 1019.6 |
| 20260505120007 | 18 | 135 | 4.8 | 9.7 | 0.00 | 0.00 | 0.00 | 43 | 1019.6 |
| 20260505115517 | 18 | 135 | 4.8 | 9.7 | 0.00 | 0.00 | 0.00 | 42 | 1019.5 |
| 20260505115018 | 18 | 135 | 4.8 | 8.0 | 0.00 | 0.00 | 0.00 | 42 | 1019.3 |
| 20260505114518 | 18 | 113 | 3.2 | 6.4 | 0.00 | 0.00 | 0.00 | 42 | 1019.4 |
| 20260505114018 | 18 | 135 | 3.2 | 6.4 | 0.00 | 0.00 | 0.00 | 41 | 1019.3 |
| 20260505113517 | 18 | 135 | 4.8 | 9.7 | 0.00 | 0.00 | 0.00 | 41 | 1019.2 |
| 20260505113006 | 18 | 135 | 4.8 | 11.3 | 0.00 | 0.00 | 0.00 | 41 | 1019.2 |
| 20260505112517 | 19 | 135 | 3.2 | 6.4 | 0.00 | 0.00 | 0.00 | 40 | 1019.1 |
| 20260505112019 | 19 | 135 | 3.2 | 6.4 | 0.00 | 0.00 | 0.00 | 40 | 1019.3 |
| 20260505111517 | 19 | 135 | 4.8 | 8.0 | 0.00 | 0.00 | 0.00 | 40 | 1019.2 |
| 20260505111018 | 20 | 135 | 3.2 | 6.4 | 0.00 | 0.00 | 0.00 | 39 | 1019.2 |
| 20260505110517 | 20 | 135 | 4.8 | 9.7 | 0.00 | 0.00 | 0.00 | 39 | 1019.2 |
| 20260505102017 | 21 | 113 | 3.2 | 6.4 | 0.00 | 0.00 | 0.00 | 36 | 1018.8 |
| 20260505101517 | 21 | 113 | 3.2 | 9.7 | 0.00 | 0.00 | 0.00 | 36 | 1018.9 |
| 20260505101018 | 21 | 113 | 3.2 | 6.4 | 0.00 | 0.00 | 0.00 | 35 | 1018.8 |
| 20260505100517 | 22 | 113 | 4.8 | 9.7 | 0.00 | 0.00 | 0.00 | 35 | 1018.9 |
| 20260505100006 | 22 | 113 | 4.8 | 9.7 | 0.00 | 0.00 | 0.00 | 34 | 1018.8 |
| 20260505095518 | 22 | 113 | 6.4 | 12.9 | 0.00 | 0.00 | 0.00 | 33 | 1018.8 |
| 20260505095017 | 21 | 113 | 4.8 | 11.3 | 0.00 | 0.00 | 0.00 | 34 | 1018.7 |
| 20260505094517 | 22 | 113 | 3.2 | 9.7 | 0.00 | 0.00 | 0.00 | 33 | 1018.7 |
| 20260505094038 | 22 | 90 | 6.4 | 11.3 | 0.00 | 0.00 | 0.00 | 32 | 1018.6 |
| 20260505093517 | 22 | 90 | 6.4 | 11.3 | 0.00 | 0.00 | 0.00 | 31 | 1018.6 |
| 20260505093007 | 22 | 90 | 8.0 | 11.3 | 0.00 | 0.00 | 0.00 | 31 | 1018.7 |
| 20260505092518 | 23 | 90 | 8.0 | 11.3 | 0.00 | 0.00 | 0.00 | 30 | 1018.6 |
| 20260505092017 | 23 | 90 | 6.4 | 11.3 | 0.00 | 0.00 | 0.00 | 29 | 1018.6 |
| 20260505091519 | 23 | 90 | 6.4 | 11.3 | 0.00 | 0.00 | 0.00 | 28 | 1018.6 |
| 20260505091017 | 23 | 90 | 6.4 | 12.9 | 0.00 | 0.00 | 0.00 | 28 | 1018.5 |
| 20260505090517 | 24 | 90 | 9.7 | 16.1 | 0.00 | 0.00 | 0.00 | 27 | 1018.6 |
| 20260505090007 | 24 | 90 | 9.7 | 14.5 | 0.00 | 0.00 | 0.00 | 27 | 1018.6 |
| 20260505085517 | 24 | 90 | 9.7 | 16.1 | 0.00 | 0.00 | 0.00 | 28 | 1018.6 |
| 20260505085017 | 24 | 90 | 9.7 | 14.5 | 0.00 | 0.00 | 0.00 | 28 | 1018.5 |
| 20260505084202 | -17 | 0.0 | 0.0 | 0.00 | 0.00 | 0.00 | |||
| 20260505051018 | -17 | 0.0 | 0.0 | 0.00 | 0.00 | 0.00 | |||
| 20260505050518 | -17 | 0.0 | 0.0 | 0.00 | 0.00 | 0.00 | |||
| 20260505041517 | 22 | 68 | 17.7 | 25.7 | 0.00 | 0.00 | 0.00 | 38 | 1019.4 |
| 20260505041017 | 22 | 68 | 17.7 | 25.7 | 0.00 | 0.00 | 0.00 | 38 | 1019.5 |
| 20260505040517 | 22 | 68 | 20.9 | 33.8 | 0.00 | 0.00 | 0.00 | 37 | 1019.5 |
| 20260505040006 | 22 | 68 | 20.9 | 30.6 | 0.00 | 0.00 | 0.00 | 39 | 1019.6 |
| 20260505035518 | 21 | 45 | 20.9 | 32.2 | 0.00 | 0.00 | 0.00 | 40 | 1019.7 |
| 20260505035017 | 21 | 68 | 20.9 | 29.0 | 0.00 | 0.00 | 0.00 | 40 | 1019.9 |
| 20260505034517 | 21 | 68 | 22.5 | 30.6 | 0.00 | 0.00 | 0.00 | 40 | 1019.8 |
| 20260505034017 | 21 | 68 | 22.5 | 30.6 | 0.00 | 0.00 | 0.00 | 41 | 1020.0 |
| 20260505033517 | 21 | 68 | 20.9 | 29.0 | 0.00 | 0.00 | 0.00 | 42 | 1019.9 |
| 20260505033035 | 21 | 68 | 20.9 | 27.4 | 0.00 | 0.00 | 0.00 | 42 | 1019.9 |
| 20260505032517 | 21 | 45 | 24.1 | 33.8 | 0.00 | 0.00 | 0.00 | 42 | 1020.1 |
| 20260505032017 | 21 | 45 | 22.5 | 30.6 | 0.00 | 0.00 | 0.00 | 42 | 1020.2 |
| 20260505031517 | 21 | 68 | 20.9 | 37.0 | 0.00 | 0.00 | 0.00 | 42 | 1020.1 |
| 20260505031017 | 21 | 45 | 20.9 | 30.6 | 0.00 | 0.00 | 0.00 | 43 | 1020.2 |
| 20260505030539 | 21 | 45 | 20.9 | 32.2 | 0.00 | 0.00 | 0.00 | 44 | 1020.3 |
| 20260505030007 | 21 | 45 | 22.5 | 29.0 | 0.00 | 0.00 | 0.00 | 44 | 1020.4 |
| 20260505025517 | 20 | 45 | 22.5 | 27.4 | 0.00 | 0.00 | 0.00 | 44 | 1020.3 |
| 20260505025017 | 21 | 45 | 24.1 | 33.8 | 0.00 | 0.00 | 0.00 | 43 | 1020.3 |
| 20260505024517 | 21 | 45 | 20.9 | 30.6 | 0.00 | 0.00 | 0.00 | 44 | 1020.5 |
| 20260505024017 | 20 | 45 | 22.5 | 33.8 | 0.00 | 0.00 | 0.00 | 44 | 1020.5 |
| 20260505023538 | 20 | 68 | 22.5 | 32.2 | 0.00 | 0.00 | 0.00 | 44 | 1020.4 |
| 20260505023007 | 21 | 68 | 25.7 | 33.8 | 0.00 | 0.00 | 0.00 | 44 | 1020.4 |
| 20260505022517 | 21 | 68 | 25.7 | 33.8 | 0.00 | 0.00 | 0.00 | 43 | 1020.6 |
| 20260505022017 | 21 | 68 | 24.1 | 35.4 | 0.00 | 0.00 | 0.00 | 44 | 1020.6 |
| 20260505021517 | 20 | 68 | 22.5 | 32.2 | 0.00 | 0.00 | 0.00 | 45 | 1020.7 |
| 20260505021017 | 20 | 68 | 24.1 | 33.8 | 0.00 | 0.00 | 0.00 | 45 | 1020.7 |
| 20260505020517 | 20 | 68 | 22.5 | 32.2 | 0.00 | 0.00 | 0.00 | 46 | 1020.8 |
| 20260505020010 | 20 | 45 | 24.1 | 30.6 | 0.00 | 0.00 | 0.00 | 47 | 1020.8 |
| 20260505015518 | 19 | 68 | 24.1 | 32.2 | 0.00 | 0.00 | 0.00 | 48 | 1020.8 |
| 20260505015017 | 19 | 68 | 24.1 | 32.2 | 0.00 | 0.00 | 0.00 | 49 | 1020.8 |
| 20260505014517 | 18 | 68 | 22.5 | 33.8 | 0.00 | 0.00 | 0.00 | 49 | 1020.8 |
| 20260505014119 | 18 | 68 | 24.1 | 32.2 | 0.00 | 0.00 | 0.00 | 50 | 1020.8 |